Regional Weather Roundup
Issued by NWS

Home | Current Version | Previous Version | Graphics & Text | Print | Product List | Glossary On
Versions: 1 2 3 4 5 6 7 8 9 10 11 12 13 14 15 16 17 18 19 20 21 22 23 24 25 26 27 28 29 30 31 32 33 34 35 36 37 38 39 40 41 42 43 44 45 46 47 48 49 50
000
ASUS44 KMEG 251600
RWRTN
TENNESSEE HOURLY STATE WEATHER ROUNDUP
NATIONAL WEATHER SERVICE MEMPHIS TN
1000 AM CST THU DEC 25 2014

TNZ002-004-019-021-049-052-054-088>092-251700-
WEST TENNESSEE

CITY           SKY/WX    TMP DP  RH WIND       PRES   REMARKS
MEMPHIS INTL   MOSUNNY   45  34  65 S12       30.20R
NWS MEMPHIS      N/A     43 N/A N/A MISG        N/A
JACKSON        MOSUNNY   45  34  65 SW14      30.21R
DYERSBURG      SUNNY     45  27  49 S8        30.20S
UNION CITY     SUNNY     43  36  75 SW12      30.17R
PARIS          SUNNY     43  34  70 SW12      30.18R
LEXINGTON      PTSUNNY   45  34  65 S12       30.21R
SAVANNAH       SUNNY     45  34  65 SW7       30.23R
$$

TNZ008-025-027-028-033-062-065-066-251700-
NORTH MIDDLE TENNESSEE

CITY           SKY/WX    TMP DP  RH WIND       PRES   REMARKS
NASHVILLE      CLOUDY    42  32  67 W6        30.22R
CLARKSVILLE    CLOUDY    42  33  70 SW10      30.20R
COOKEVILLE     CLOUDY    41  34  75 W7        30.20R
CROSSVILLE     CLOUDY    38  32  79 W9        30.18R WCI  31
$$

TNZ061-075-076-078-094-096-097-251700-
SOUTH MIDDLE TENNESSEE

CITY           SKY/WX    TMP DP  RH WIND       PRES   REMARKS
FAYETTEVILLE   PTSUNNY   39  30  70 MISG      30.23R
TULLAHOMA      CLOUDY    39  30  70 SW6       30.23R WCI  35
WINCHESTER     CLOUDY    39  32  75 CALM      30.23R
SHELBYVILLE    CLOUDY    43  34  70 SW8       30.23R
$$

TNZ017-018-042-046-047-251700-
NORTHEAST TENNESSEE

CITY           SKY/WX    TMP DP  RH WIND       PRES   REMARKS
TRI CITIES     CLOUDY    43  33  68 W14       30.17R
ELIZABETHTON   CLOUDY    39  30  70 W9        30.17R WCI  33
$$

TNZ012-013-036-069-073-074-251700-
CENTRAL EAST TENNESSEE

CITY           SKY/WX    TMP DP  RH WIND       PRES   REMARKS
KNOXVILLE      PTSUNNY   42  32  67 W6        30.21R
OAK RIDGE      PTSUNNY   43  34  70 W5        30.22R
GATLINBURG     MOSUNNY   43  32  65 W7        30.20R
$$

TNZ083-085-099-251700-
SOUTHEAST TENNESSEE

CITY           SKY/WX    TMP DP  RH WIND       PRES   REMARKS
CHATTANOOGA    PTSUNNY   45  33  63 W5        30.24R
$$

SKY/WX REPORTED AS FAIR MEANS FEW OR NO CLOUDS BELOW
12 THOUSAND FEET.



USA.gov is the U.S. government's official web portal to all federal, state and local government web resources and services.